contact:dominique.lefevre@mio.osupytheas.fr, maurice.libes@osupytheas.fr, didier.mallarino@osupytheas.fr
Project:EMSO http://www.emso-fr.org/EMSO-France
Depth: 2436.0 m
Title:EMSO Ligure Ouest : Data MII capteur MICROCAT
DateTime_Computer,Latitude,Longitude,Temperature,Conductivity,Pressure,DateTime_Instrument
DateTime_Computer,Latitude,Longitude,degC,S m-1,dbar,DateTime_Instrument
2021-02-01T00:02:49Z,42.805,6.029,13.3000,4.60102,2470.11,2021-2-01T02:03:52Z
2021-02-01T00:05:52Z,42.805,6.029,13.3001,4.60126,2470.133,2021-2-01T02:06:55Z
2021-02-01T00:08:55Z,42.805,6.029,13.2998,4.60065,2470.1,2021-2-01T02:09:58Z
2021-02-01T00:11:59Z,42.805,6.029,13.3004,4.60065,2470.087,2021-2-01T02:13:01Z
2021-02-01T00:15:02Z,42.805,6.029,13.2997,4.60080,2470.1,2021-2-01T02:16:04Z
2021-02-01T00:18:05Z,42.805,6.029,13.3009,4.60097,2470.11,2021-2-01T02:19:08Z
2021-02-01T00:21:08Z,42.805,6.029,13.3010,4.60053,2470.087,2021-2-01T02:22:11Z
2021-02-01T00:24:11Z,42.805,6.029,13.3004,4.60069,2470.063,2021-2-01T02:25:14Z
2021-02-01T00:27:14Z,42.805,6.029,13.3002,4.60073,2470.1,2021-2-01T02:28:17Z
2021-02-01T00:30:17Z,42.805,6.029,13.2999,4.60064,2470.1,2021-2-01T02:31:20Z
2021-02-01T00:33:20Z,42.805,6.029,13.3002,4.60040,2470.087,2021-2-01T02:34:23Z
2021-02-01T00:36:24Z,42.805,6.029,13.3015,4.60029,2470.087,2021-2-01T02:37:26Z
2021-02-01T00:39:27Z,42.805,6.029,13.3001,4.60054,2470.1,2021-2-01T02:40:29Z
2021-02-01T00:42:30Z,42.805,6.029,13.3009,4.60111,2470.063,2021-2-01T02:43:33Z
2021-02-01T00:45:33Z,42.805,6.029,13.3012,4.60066,2470.1,2021-2-01T02:46:36Z
2021-02-01T00:48:36Z,42.805,6.029,13.3014,4.60039,2470.026,2021-2-01T02:49:39Z
2021-02-01T00:51:39Z,42.805,6.029,13.3005,4.60070,2470.1,2021-2-01T02:52:42Z
2021-02-01T00:54:42Z,42.805,6.029,13.2998,4.60053,2470.1,2021-2-01T02:55:45Z
2021-02-01T00:57:45Z,42.805,6.029,13.3009,4.60064,2470.053,2021-2-01T02:58:48Z
2021-02-01T01:00:49Z,42.805,6.029,13.3006,4.60049,2470.063,2021-2-01T03:01:51Z
2021-02-01T01:03:52Z,42.805,6.029,13.3006,4.60070,2470.087,2021-2-01T03:04:54Z
2021-02-01T01:06:55Z,42.805,6.029,13.2998,4.60078,2470.063,2021-2-01T03:07:57Z
2021-02-01T01:09:58Z,42.805,6.029,13.3000,4.60079,2470.087,2021-2-01T03:11:01Z
2021-02-01T01:13:01Z,42.805,6.029,13.3010,4.60084,2470.077,2021-2-01T03:14:04Z
2021-02-01T01:16:04Z,42.805,6.029,13.3029,4.60070,2470.04,2021-2-01T03:17:07Z
2021-02-01T01:19:07Z,42.805,6.029,13.3008,4.60052,2470.077,2021-2-01T03:20:10Z
2021-02-01T01:22:10Z,42.805,6.029,13.3012,4.60088,2470.077,2021-2-01T03:23:13Z
2021-02-01T01:25:13Z,42.805,6.029,13.3017,4.60087,2470.017,2021-2-01T03:26:16Z
2021-02-01T01:28:17Z,42.805,6.029,13.3015,4.60096,2470.077,2021-2-01T03:29:19Z
2021-02-01T01:31:20Z,42.805,6.029,13.3009,4.60102,2470.063,2021-2-01T03:32:22Z
2021-02-01T01:34:23Z,42.805,6.029,13.3019,4.60069,2470.04,2021-2-01T03:35:26Z
2021-02-01T01:37:26Z,42.805,6.029,13.3004,4.60077,2470.04,2021-2-01T03:38:29Z
2021-02-01T01:40:29Z,42.805,6.029,13.3009,4.60074,2470.077,2021-2-01T03:41:32Z
2021-02-01T01:43:32Z,42.805,6.029,13.3007,4.60068,2470.053,2021-2-01T03:44:35Z
2021-02-01T01:46:35Z,42.805,6.029,13.3010,4.60051,2470.017,2021-2-01T03:47:38Z
2021-02-01T01:49:38Z,42.805,6.029,13.3007,4.60097,2470.04,2021-2-01T03:50:41Z
2021-02-01T01:52:42Z,42.805,6.029,13.3016,4.60077,2470.017,2021-2-01T03:53:44Z
2021-02-01T01:55:45Z,42.805,6.029,13.3006,4.60066,2470.04,2021-2-01T03:56:47Z
2021-02-01T01:58:48Z,42.805,6.029,13.3017,4.60074,2470.017,2021-2-01T03:59:51Z
2021-02-01T02:01:51Z,42.805,6.029,13.3007,4.60090,2470.03,2021-2-01T04:02:54Z
2021-02-01T02:04:54Z,42.805,6.029,13.3019,4.60088,2470.017,2021-2-01T04:05:57Z
2021-02-01T02:07:57Z,42.805,6.029,13.3024,4.60081,2470.017,2021-2-01T04:09:00Z
2021-02-01T02:11:00Z,42.805,6.029,13.3009,4.60101,2470.053,2021-2-01T04:12:03Z
2021-02-01T02:14:03Z,42.805,6.029,13.3014,4.60067,2470.03,2021-2-01T04:15:06Z
2021-02-01T02:17:06Z,42.805,6.029,13.2998,4.60054,2470.03,2021-2-01T04:18:09Z
2021-02-01T02:20:10Z,42.805,6.029,13.3007,4.60064,2470.053,2021-2-01T04:21:12Z
2021-02-01T02:23:13Z,42.805,6.029,13.3012,4.60069,2470.007,2021-2-01T04:24:16Z
2021-02-01T02:26:16Z,42.805,6.029,13.3004,4.60064,2470.03,2021-2-01T04:27:19Z
2021-02-01T02:29:19Z,42.805,6.029,13.3004,4.60062,2470.03,2021-2-01T04:30:22Z
2021-02-01T02:32:22Z,42.805,6.029,13.3007,4.60094,2470.04,2021-2-01T04:33:25Z
2021-02-01T02:35:25Z,42.805,6.029,13.2998,4.60079,2469.97,2021-2-01T04:36:28Z
2021-02-01T02:38:28Z,42.805,6.029,13.3010,4.60096,2469.97,2021-2-01T04:39:31Z
2021-02-01T02:41:31Z,42.805,6.029,13.3011,4.60059,2470.017,2021-2-01T04:42:34Z
2021-02-01T02:44:35Z,42.805,6.029,13.3015,4.60097,2469.984,2021-2-01T04:45:37Z
2021-02-01T02:47:38Z,42.805,6.029,13.3015,4.60079,2470.03,2021-2-01T04:48:40Z
2021-02-01T02:50:41Z,42.805,6.029,13.2998,4.60070,2470.007,2021-2-01T04:51:44Z
2021-02-01T02:53:44Z,42.805,6.029,13.3027,4.60074,2470.03,2021-2-01T04:54:47Z
2021-02-01T02:56:47Z,42.805,6.029,13.3016,4.60102,2470.007,2021-2-01T04:57:50Z
2021-02-01T02:59:50Z,42.805,6.029,13.3020,4.60070,2470.03,2021-2-01T05:00:53Z
2021-02-01T03:02:53Z,42.805,6.029,13.3011,4.60069,2470.007,2021-2-01T05:03:56Z
2021-02-01T03:05:56Z,42.805,6.029,13.3017,4.60078,2469.993,2021-2-01T05:06:59Z
2021-02-01T03:08:59Z,42.805,6.029,13.3014,4.60069,2470.017,2021-2-01T05:10:02Z
2021-02-01T03:12:03Z,42.805,6.029,13.3007,4.60081,2469.993,2021-2-01T05:13:05Z
2021-02-01T03:15:06Z,42.805,6.029,13.3003,4.60079,2469.993,2021-2-01T05:16:09Z
2021-02-01T03:18:09Z,42.805,6.029,13.3000,4.60061,2469.993,2021-2-01T05:19:12Z
2021-02-01T03:21:12Z,42.805,6.029,13.3016,4.60074,2470.007,2021-2-01T05:22:15Z
2021-02-01T03:24:15Z,42.805,6.029,13.3006,4.60086,2469.956,2021-2-01T05:25:18Z
2021-02-01T03:27:18Z,42.805,6.029,13.3029,4.60087,2469.993,2021-2-01T05:28:21Z
2021-02-01T03:30:21Z,42.805,6.029,13.3006,4.60070,2469.984,2021-2-01T05:31:24Z
2021-02-01T03:33:24Z,42.805,6.029,13.3004,4.60080,2469.97,2021-2-01T05:34:27Z
2021-02-01T03:36:28Z,42.805,6.029,13.3015,4.60064,2469.993,2021-2-01T05:37:30Z
2021-02-01T03:39:31Z,42.805,6.029,13.3013,4.60062,2469.993,2021-2-01T05:40:33Z
2021-02-01T03:42:34Z,42.805,6.029,13.3019,4.60072,2469.993,2021-2-01T05:43:37Z
2021-02-01T03:45:37Z,42.805,6.029,13.3014,4.60074,2469.993,2021-2-01T05:46:40Z
2021-02-01T03:48:40Z,42.805,6.029,13.3004,4.60081,2470.03,2021-2-01T05:49:43Z
2021-02-01T03:51:43Z,42.805,6.029,13.3004,4.60060,2470.007,2021-2-01T05:52:46Z
2021-02-01T03:54:46Z,42.805,6.029,13.3006,4.60079,2470.017,2021-2-01T05:55:49Z
2021-02-01T03:57:49Z,42.805,6.029,13.2999,4.60067,2469.97,2021-2-01T05:58:52Z
2021-02-01T04:00:53Z,42.805,6.029,13.3006,4.60049,2469.993,2021-2-01T06:01:55Z
2021-02-01T04:03:56Z,42.805,6.029,13.2996,4.60054,2469.993,2021-2-01T06:04:58Z
2021-02-01T04:06:59Z,42.805,6.029,13.3004,4.60055,2470.017,2021-2-01T06:08:02Z
2021-02-01T04:10:02Z,42.805,6.029,13.3010,4.60037,2470.03,2021-2-01T06:11:05Z
2021-02-01T04:13:05Z,42.805,6.029,13.3002,4.60066,2470.03,2021-2-01T06:14:08Z
2021-02-01T04:16:08Z,42.805,6.029,13.3004,4.60042,2470.03,2021-2-01T06:17:11Z
2021-02-01T04:19:11Z,42.805,6.029,13.3009,4.60039,2470.03,2021-2-01T06:20:14Z
2021-02-01T04:22:14Z,42.805,6.029,13.3014,4.60052,2469.993,2021-2-01T06:23:17Z
2021-02-01T04:25:17Z,42.805,6.029,13.3003,4.60050,2469.993,2021-2-01T06:26:20Z
2021-02-01T04:28:21Z,42.805,6.029,13.3000,4.60057,2470.007,2021-2-01T06:29:23Z
2021-02-01T04:31:24Z,42.805,6.029,13.3011,4.60046,2470.017,2021-2-01T06:32:26Z
2021-02-01T04:34:27Z,42.805,6.029,13.2998,4.60034,2470.04,2021-2-01T06:35:30Z
2021-02-01T04:37:30Z,42.805,6.029,13.3008,4.60042,2470.03,2021-2-01T06:38:33Z
2021-02-01T04:40:33Z,42.805,6.029,13.3019,4.60046,2470.017,2021-2-01T06:41:36Z
2021-02-01T04:43:36Z,42.805,6.029,13.3013,4.60052,2470.007,2021-2-01T06:44:39Z
2021-02-01T04:46:39Z,42.805,6.029,13.3023,4.60050,2470.03,2021-2-01T06:47:42Z
2021-02-01T04:49:42Z,42.805,6.029,13.3000,4.60052,2470.053,2021-2-01T06:50:45Z
2021-02-01T04:52:46Z,42.805,6.029,13.3010,4.60049,2470.017,2021-2-01T06:53:48Z
2021-02-01T04:55:49Z,42.805,6.029,13.3010,4.60045,2470.007,2021-2-01T06:56:51Z
2021-02-01T04:58:52Z,42.805,6.029,13.3005,4.60067,2470.007,2021-2-01T06:59:55Z
2021-02-01T05:01:55Z,42.805,6.029,13.3004,4.60062,2470.03,2021-2-01T07:02:58Z
2021-02-01T05:04:58Z,42.805,6.029,13.3000,4.60049,2470.04,2021-2-01T07:06:01Z
2021-02-01T05:08:01Z,42.805,6.029,13.3002,4.60046,2470.017,2021-2-01T07:09:04Z
2021-02-01T05:11:04Z,42.805,6.029,13.3011,4.60053,2470.03,2021-2-01T07:12:07Z
2021-02-01T05:14:07Z,42.805,6.029,13.2998,4.60045,2470.017,2021-2-01T07:15:10Z
2021-02-01T05:17:10Z,42.805,6.029,13.3009,4.60042,2470.03,2021-2-01T07:18:13Z
2021-02-01T05:20:14Z,42.805,6.029,13.2997,4.60033,2470.053,2021-2-01T07:21:16Z
2021-02-01T05:23:17Z,42.805,6.029,13.3009,4.60033,2470.04,2021-2-01T07:24:19Z
2021-02-01T05:26:20Z,42.805,6.029,13.2998,4.60034,2470.04,2021-2-01T07:27:23Z
2021-02-01T05:29:23Z,42.805,6.029,13.3006,4.60036,2470.063,2021-2-01T07:30:26Z
2021-02-01T05:32:26Z,42.805,6.029,13.3006,4.60029,2470.063,2021-2-01T07:33:29Z
2021-02-01T05:35:29Z,42.805,6.029,13.2998,4.60033,2470.053,2021-2-01T07:36:32Z
2021-02-01T05:38:32Z,42.805,6.029,13.2996,4.60021,2470.077,2021-2-01T07:39:35Z
2021-02-01T05:41:35Z,42.805,6.029,13.3004,4.60014,2470.053,2021-2-01T07:42:38Z
2021-02-01T05:44:39Z,42.805,6.029,13.3004,4.60019,2470.063,2021-2-01T07:45:41Z
2021-02-01T05:47:42Z,42.805,6.029,13.2994,4.60016,2470.077,2021-2-01T07:48:44Z
2021-02-01T05:50:45Z,42.805,6.029,13.2996,4.60010,2470.063,2021-2-01T07:51:48Z
2021-02-01T05:53:48Z,42.805,6.029,13.2999,4.60019,2470.077,2021-2-01T07:54:51Z
2021-02-01T05:56:51Z,42.805,6.029,13.3000,4.60029,2470.087,2021-2-01T07:57:54Z
2021-02-01T05:59:54Z,42.805,6.029,13.2998,4.60019,2470.087,2021-2-01T08:00:57Z
2021-02-01T06:02:57Z,42.805,6.029,13.2997,4.60009,2470.087,2021-2-01T08:04:00Z
2021-02-01T06:06:00Z,42.805,6.029,13.2997,4.60018,2470.1,2021-2-01T08:07:03Z
2021-02-01T06:09:04Z,42.805,6.029,13.3005,4.60021,2470.063,2021-2-01T08:10:06Z
2021-02-01T06:12:07Z,42.805,6.029,13.2991,4.60016,2470.124,2021-2-01T08:13:09Z
2021-02-01T06:15:10Z,42.805,6.029,13.3006,4.60028,2470.124,2021-2-01T08:16:12Z
2021-02-01T06:18:13Z,42.805,6.029,13.2998,4.60021,2470.087,2021-2-01T08:19:16Z
2021-02-01T06:21:16Z,42.805,6.029,13.2993,4.60018,2470.133,2021-2-01T08:22:19Z
2021-02-01T06:24:19Z,42.805,6.029,13.3004,4.60035,2470.11,2021-2-01T08:25:22Z
2021-02-01T06:27:22Z,42.805,6.029,13.2996,4.60037,2470.11,2021-2-01T08:28:25Z
2021-02-01T06:30:25Z,42.805,6.029,13.3006,4.60021,2470.124,2021-2-01T08:31:28Z
2021-02-01T06:33:28Z,42.805,6.029,13.2993,4.60027,2470.133,2021-2-01T08:34:31Z
2021-02-01T06:36:32Z,42.805,6.029,13.2998,4.60049,2470.11,2021-2-01T08:37:34Z
2021-02-01T06:39:35Z,42.805,6.029,13.2996,4.60019,2470.124,2021-2-01T08:40:37Z
2021-02-01T06:42:38Z,42.805,6.029,13.2993,4.60014,2470.147,2021-2-01T08:43:41Z
2021-02-01T06:45:41Z,42.805,6.029,13.2990,4.60008,2470.133,2021-2-01T08:46:44Z
2021-02-01T06:48:44Z,42.805,6.029,13.2989,4.60007,2470.133,2021-2-01T08:49:47Z
2021-02-01T06:51:47Z,42.805,6.029,13.2994,4.60016,2470.11,2021-2-01T08:52:50Z
2021-02-01T06:54:50Z,42.805,6.029,13.2995,4.60020,2470.124,2021-2-01T08:55:53Z
2021-02-01T06:57:53Z,42.805,6.029,13.2993,4.60020,2470.18,2021-2-01T08:58:56Z
2021-02-01T07:00:57Z,42.805,6.029,13.2991,4.60016,2470.171,2021-2-01T09:01:59Z
2021-02-01T07:04:00Z,42.805,6.029,13.2993,4.60014,2470.194,2021-2-01T09:05:02Z
2021-02-01T07:07:03Z,42.805,6.029,13.2998,4.60011,2470.194,2021-2-01T09:08:05Z
2021-02-01T07:10:06Z,42.805,6.029,13.3000,4.60021,2470.18,2021-2-01T09:11:09Z
2021-02-01T07:13:09Z,42.805,6.029,13.2996,4.60033,2470.171,2021-2-01T09:14:12Z
2021-02-01T07:16:12Z,42.805,6.029,13.2993,4.60007,2470.217,2021-2-01T09:17:15Z
2021-02-01T07:19:15Z,42.805,6.029,13.3003,4.60021,2470.18,2021-2-01T09:20:18Z
2021-02-01T07:22:18Z,42.805,6.029,13.2999,4.60019,2470.156,2021-2-01T09:23:21Z
2021-02-01T07:25:21Z,42.805,6.029,13.2991,4.60010,2470.18,2021-2-01T09:26:24Z
2021-02-01T07:28:25Z,42.805,6.029,13.2997,4.60009,2470.203,2021-2-01T09:29:27Z
2021-02-01T07:31:28Z,42.805,6.029,13.2996,4.60017,2470.203,2021-2-01T09:32:30Z
2021-02-01T07:34:31Z,42.805,6.029,13.2987,4.60009,2470.203,2021-2-01T09:35:34Z
2021-02-01T07:37:34Z,42.805,6.029,13.2990,4.60023,2470.24,2021-2-01T09:38:37Z
2021-02-01T07:40:37Z,42.805,6.029,13.2996,4.60019,2470.24,2021-2-01T09:41:40Z
2021-02-01T07:43:40Z,42.805,6.029,13.3000,4.60024,2470.227,2021-2-01T09:44:43Z
2021-02-01T07:46:43Z,42.805,6.029,13.2986,4.60011,2470.264,2021-2-01T09:47:46Z
2021-02-01T07:49:46Z,42.805,6.029,13.2996,4.60014,2470.194,2021-2-01T09:50:49Z
2021-02-01T07:52:50Z,42.805,6.029,13.2993,4.60021,2470.227,2021-2-01T09:53:52Z
2021-02-01T07:55:53Z,42.805,6.029,13.3015,4.60027,2470.25,2021-2-01T09:56:55Z
2021-02-01T07:58:56Z,42.805,6.029,13.2996,4.60028,2470.25,2021-2-01T09:59:59Z
2021-02-01T08:01:59Z,42.805,6.029,13.3000,4.60034,2470.227,2021-2-01T10:03:02Z
2021-02-01T08:05:02Z,42.805,6.029,13.2990,4.60015,2470.24,2021-2-01T10:06:05Z
2021-02-01T08:08:05Z,42.805,6.029,13.3000,4.60016,2470.217,2021-2-01T10:09:08Z
2021-02-01T08:11:08Z,42.805,6.029,13.3000,4.60026,2470.227,2021-2-01T10:12:11Z
2021-02-01T08:14:11Z,42.805,6.029,13.3002,4.60032,2470.25,2021-2-01T10:15:14Z
2021-02-01T08:17:14Z,42.805,6.029,13.3000,4.60036,2470.273,2021-2-01T10:18:17Z
2021-02-01T08:20:18Z,42.805,6.029,13.2999,4.60033,2470.31,2021-2-01T10:21:20Z
2021-02-01T08:23:21Z,42.805,6.029,13.2995,4.60015,2470.25,2021-2-01T10:24:23Z
2021-02-01T08:26:24Z,42.805,6.029,13.2996,4.60019,2470.264,2021-2-01T10:27:27Z
2021-02-01T08:29:27Z,42.805,6.029,13.2998,4.60021,2470.264,2021-2-01T10:30:30Z
2021-02-01T08:32:30Z,42.805,6.029,13.2998,4.60034,2470.25,2021-2-01T10:33:33Z
2021-02-01T08:35:33Z,42.805,6.029,13.3000,4.60041,2470.264,2021-2-01T10:36:36Z
2021-02-01T08:38:36Z,42.805,6.029,13.3009,4.60038,2470.264,2021-2-01T10:39:39Z
2021-02-01T08:41:39Z,42.805,6.029,13.3016,4.60024,2470.264,2021-2-01T10:42:42Z
2021-02-01T08:44:43Z,42.805,6.029,13.3016,4.60017,2470.25,2021-2-01T10:45:45Z
2021-02-01T08:47:46Z,42.805,6.029,13.3014,4.60049,2470.287,2021-2-01T10:48:48Z
2021-02-01T08:50:49Z,42.805,6.029,13.3025,4.60040,2470.297,2021-2-01T10:51:52Z
2021-02-01T08:53:52Z,42.805,6.029,13.3034,4.60055,2470.31,2021-2-01T10:54:55Z
2021-02-01T08:56:55Z,42.805,6.029,13.3005,4.60062,2470.25,2021-2-01T10:57:58Z
2021-02-01T08:59:58Z,42.805,6.029,13.3015,4.60064,2470.273,2021-2-01T11:01:01Z
2021-02-01T09:03:01Z,42.805,6.029,13.3026,4.60067,2470.264,2021-2-01T11:04:04Z
2021-02-01T09:06:04Z,42.805,6.029,13.3022,4.60044,2470.273,2021-2-01T11:07:07Z
2021-02-01T09:09:08Z,42.805,6.029,13.3018,4.60033,2470.287,2021-2-01T11:10:10Z
2021-02-01T09:12:11Z,42.805,6.029,13.3008,4.60045,2470.31,2021-2-01T11:13:13Z
2021-02-01T09:15:14Z,42.805,6.029,13.3044,4.60002,2470.31,2021-2-01T11:16:17Z
2021-02-01T09:18:17Z,42.805,6.029,13.3007,4.60033,2470.297,2021-2-01T11:19:20Z
2021-02-01T09:21:20Z,42.805,6.029,13.3029,4.60016,2470.297,2021-2-01T11:22:23Z
2021-02-01T09:24:23Z,42.805,6.029,13.3008,4.60068,2470.273,2021-2-01T11:25:26Z
2021-02-01T09:27:26Z,42.805,6.029,13.3014,4.60082,2470.334,2021-2-01T11:28:29Z
2021-02-01T09:30:29Z,42.805,6.029,13.3046,4.60046,2470.31,2021-2-01T11:31:32Z
2021-02-01T09:33:33Z,42.805,6.029,13.3012,4.60053,2470.297,2021-2-01T11:34:35Z
2021-02-01T09:36:36Z,42.805,6.029,13.2997,4.60024,2470.273,2021-2-01T11:37:38Z
2021-02-01T09:39:39Z,42.805,6.029,13.3028,4.60084,2470.32,2021-2-01T11:40:42Z
2021-02-01T09:42:42Z,42.805,6.029,13.3025,4.60064,2470.31,2021-2-01T11:43:45Z
2021-02-01T09:45:45Z,42.805,6.029,13.3048,4.60068,2470.32,2021-2-01T11:46:48Z
2021-02-01T09:48:48Z,42.805,6.029,13.3056,4.60015,2470.334,2021-2-01T11:49:51Z
2021-02-01T09:51:51Z,42.805,6.029,13.3025,4.60055,2470.31,2021-2-01T11:52:54Z
2021-02-01T09:54:54Z,42.805,6.029,13.3032,4.60016,2470.334,2021-2-01T11:55:57Z
2021-02-01T09:57:58Z,42.805,6.029,13.3029,4.60023,2470.31,2021-2-01T11:59:00Z
2021-02-01T10:01:01Z,42.805,6.029,13.3021,4.60034,2470.297,2021-2-01T12:02:03Z
2021-02-01T10:04:04Z,42.805,6.029,13.3004,4.60038,2470.343,2021-2-01T12:05:07Z
2021-02-01T10:07:07Z,42.805,6.029,13.3046,4.60026,2470.32,2021-2-01T12:08:10Z
2021-02-01T10:10:10Z,42.805,6.029,13.3034,4.60017,2470.31,2021-2-01T12:11:13Z
2021-02-01T10:13:13Z,42.805,6.029,13.3009,4.60030,2470.297,2021-2-01T12:14:16Z
2021-02-01T10:16:16Z,42.805,6.029,13.3004,4.60079,2470.357,2021-2-01T12:17:19Z
2021-02-01T10:19:19Z,42.805,6.029,13.3006,4.60035,2470.32,2021-2-01T12:20:22Z
2021-02-01T10:22:23Z,42.805,6.029,13.3019,4.60028,2470.297,2021-2-01T12:23:25Z
2021-02-01T10:25:26Z,42.805,6.029,13.3021,4.60031,2470.31,2021-2-01T12:26:28Z
2021-02-01T10:28:29Z,42.805,6.029,13.3024,4.60033,2470.32,2021-2-01T12:29:32Z
2021-02-01T10:31:32Z,42.805,6.029,13.3029,4.60008,2470.334,2021-2-01T12:32:35Z
2021-02-01T10:34:35Z,42.805,6.029,13.2996,4.60016,2470.32,2021-2-01T12:35:38Z
2021-02-01T10:37:38Z,42.805,6.029,13.3037,4.60028,2470.31,2021-2-01T12:38:41Z
2021-02-01T10:40:41Z,42.805,6.029,13.3015,4.60023,2470.32,2021-2-01T12:41:44Z
2021-02-01T10:43:44Z,42.805,6.029,13.3026,4.60005,2470.297,2021-2-01T12:44:47Z
2021-02-01T10:46:48Z,42.805,6.029,13.3043,4.60046,2470.273,2021-2-01T12:47:50Z
2021-02-01T10:49:51Z,42.805,6.029,13.3025,4.60038,2470.31,2021-2-01T12:50:53Z
2021-02-01T10:52:54Z,42.805,6.029,13.3044,4.60019,2470.297,2021-2-01T12:53:57Z
2021-02-01T10:55:57Z,42.805,6.029,13.3036,4.60021,2470.297,2021-2-01T12:57:00Z
2021-02-01T10:59:00Z,42.805,6.029,13.3049,4.60031,2470.334,2021-2-01T13:00:03Z
2021-02-01T11:02:03Z,42.805,6.029,13.3052,4.60026,2470.297,2021-2-01T13:03:06Z
2021-02-01T11:05:06Z,42.805,6.029,13.3030,4.60030,2470.273,2021-2-01T13:06:09Z
2021-02-01T11:08:09Z,42.805,6.029,13.3039,4.60039,2470.287,2021-2-01T13:09:12Z
2021-02-01T11:11:13Z,42.805,6.029,13.3054,4.60025,2470.287,2021-2-01T13:12:15Z
2021-02-01T11:14:16Z,42.805,6.029,13.3067,4.60033,2470.297,2021-2-01T13:15:18Z
2021-02-01T11:17:19Z,42.805,6.029,13.3044,4.60024,2470.287,2021-2-01T13:18:22Z
2021-02-01T11:20:22Z,42.805,6.029,13.3056,4.60033,2470.297,2021-2-01T13:21:25Z
2021-02-01T11:23:25Z,42.805,6.029,13.3051,4.60032,2470.297,2021-2-01T13:24:28Z
2021-02-01T11:26:28Z,42.805,6.029,13.3049,4.60031,2470.273,2021-2-01T13:27:31Z
2021-02-01T11:29:31Z,42.805,6.029,13.3072,4.60032,2470.31,2021-2-01T13:30:34Z
2021-02-01T11:32:34Z,42.805,6.029,13.3046,4.60036,2470.25,2021-2-01T13:33:37Z
2021-02-01T11:35:38Z,42.805,6.029,13.3056,4.60021,2470.287,2021-2-01T13:36:40Z
2021-02-01T11:38:41Z,42.805,6.029,13.3048,4.60014,2470.264,2021-2-01T13:39:43Z
2021-02-01T11:41:44Z,42.805,6.029,13.3040,4.60051,2470.287,2021-2-01T13:42:47Z
2021-02-01T11:44:47Z,42.805,6.029,13.3041,4.60070,2470.297,2021-2-01T13:45:50Z
2021-02-01T11:47:50Z,42.805,6.029,13.3035,4.60046,2470.273,2021-2-01T13:48:53Z
2021-02-01T11:50:53Z,42.805,6.029,13.3034,4.60068,2470.25,2021-2-01T13:51:56Z
2021-02-01T11:53:56Z,42.805,6.029,13.3056,4.60043,2470.25,2021-2-01T13:54:59Z
2021-02-01T11:56:59Z,42.805,6.029,13.3043,4.60047,2470.264,2021-2-01T13:58:02Z
2021-02-01T12:00:03Z,42.805,6.029,13.3058,4.60022,2470.31,2021-2-01T14:01:05Z
2021-02-01T12:03:06Z,42.805,6.029,13.3048,4.60045,2470.264,2021-2-01T14:04:08Z
2021-02-01T12:06:09Z,42.805,6.029,13.3053,4.60050,2470.264,2021-2-01T14:07:12Z
2021-02-01T12:09:12Z,42.805,6.029,13.3061,4.60029,2470.25,2021-2-01T14:10:15Z
2021-02-01T12:12:15Z,42.805,6.029,13.3063,4.60031,2470.264,2021-2-01T14:13:18Z
2021-02-01T12:15:18Z,42.805,6.029,13.3059,4.60041,2470.264,2021-2-01T14:16:21Z
2021-02-01T12:18:21Z,42.805,6.029,13.3054,4.60050,2470.217,2021-2-01T14:19:24Z
2021-02-01T12:21:24Z,42.805,6.029,13.3061,4.60032,2470.264,2021-2-01T14:22:27Z
2021-02-01T12:24:27Z,42.805,6.029,13.3063,4.60032,2470.273,2021-2-01T14:25:30Z
2021-02-01T12:27:31Z,42.805,6.029,13.3049,4.60059,2470.24,2021-2-01T14:28:33Z
2021-02-01T12:30:34Z,42.805,6.029,13.3051,4.60040,2470.264,2021-2-01T14:31:37Z
2021-02-01T12:33:37Z,42.805,6.029,13.3067,4.60033,2470.24,2021-2-01T14:34:40Z
2021-02-01T12:36:40Z,42.805,6.029,13.3036,4.60038,2470.227,2021-2-01T14:37:43Z
2021-02-01T12:39:43Z,42.805,6.029,13.3041,4.60050,2470.24,2021-2-01T14:40:46Z
2021-02-01T12:42:46Z,42.805,6.029,13.3054,4.60087,2470.227,2021-2-01T14:43:49Z
2021-02-01T12:45:49Z,42.805,6.029,13.3052,4.60069,2470.227,2021-2-01T14:46:52Z
2021-02-01T12:48:53Z,42.805,6.029,13.3014,4.60062,2470.24,2021-2-01T14:49:55Z
2021-02-01T12:51:56Z,42.805,6.029,13.3021,4.60015,2470.278,2021-2-01T14:52:58Z
2021-02-01T12:54:59Z,42.805,6.029,13.3022,4.60008,2470.203,2021-2-01T14:56:02Z
2021-02-01T12:58:02Z,42.805,6.029,13.3024,4.60025,2470.227,2021-2-01T14:59:05Z
2021-02-01T13:01:05Z,42.805,6.029,13.3021,4.60003,2470.203,2021-2-01T15:02:08Z
2021-02-01T13:04:08Z,42.805,6.029,13.3006,4.60006,2470.203,2021-2-01T15:05:11Z
2021-02-01T13:07:11Z,42.805,6.029,13.2998,4.60001,2470.227,2021-2-01T15:08:14Z
2021-02-01T13:10:14Z,42.805,6.029,13.2991,4.60003,2470.217,2021-2-01T15:11:17Z
2021-02-01T13:13:17Z,42.805,6.029,13.3000,4.59995,2470.217,2021-2-01T15:14:20Z
2021-02-01T13:16:21Z,42.805,6.029,13.2988,4.60000,2470.18,2021-2-01T15:17:23Z
2021-02-01T13:19:24Z,42.805,6.029,13.2986,4.60011,2470.24,2021-2-01T15:20:27Z
2021-02-01T13:22:27Z,42.805,6.029,13.2998,4.60003,2470.227,2021-2-01T15:23:30Z
2021-02-01T13:25:30Z,42.805,6.029,13.2987,4.60025,2470.18,2021-2-01T15:26:33Z
2021-02-01T13:28:33Z,42.805,6.029,13.2983,4.60020,2470.203,2021-2-01T15:29:36Z
2021-02-01T13:31:36Z,42.805,6.029,13.2990,4.60019,2470.194,2021-2-01T15:32:39Z
2021-02-01T13:34:39Z,42.805,6.029,13.2983,4.60008,2470.194,2021-2-01T15:35:42Z
2021-02-01T13:37:43Z,42.805,6.029,13.2989,4.60011,2470.18,2021-2-01T15:38:45Z
2021-02-01T13:40:46Z,42.805,6.029,13.2992,4.60010,2470.133,2021-2-01T15:41:48Z
2021-02-01T13:43:49Z,42.805,6.029,13.2999,4.60005,2470.203,2021-2-01T15:44:52Z
2021-02-01T13:46:52Z,42.805,6.029,13.2992,4.59996,2470.171,2021-2-01T15:47:55Z
2021-02-01T13:49:55Z,42.805,6.029,13.2987,4.59993,2470.217,2021-2-01T15:50:58Z
2021-02-01T13:52:58Z,42.805,6.029,13.2986,4.59991,2470.194,2021-2-01T15:54:01Z
2021-02-01T13:56:01Z,42.805,6.029,13.2986,4.59991,2470.194,2021-2-01T15:57:04Z
2021-02-01T13:59:04Z,42.805,6.029,13.2985,4.59990,2470.194,2021-2-01T16:00:07Z
2021-02-01T14:02:07Z,42.805,6.029,13.2988,4.59993,2470.171,2021-2-01T16:03:10Z
2021-02-01T14:05:11Z,42.805,6.029,13.2983,4.59991,2470.171,2021-2-01T16:06:13Z
2021-02-01T14:08:14Z,42.805,6.029,13.2987,4.59993,2470.18,2021-2-01T16:09:17Z
2021-02-01T14:11:17Z,42.805,6.029,13.2990,4.59989,2470.133,2021-2-01T16:12:20Z
2021-02-01T14:14:20Z,42.805,6.029,13.2988,4.59990,2470.156,2021-2-01T16:15:23Z
2021-02-01T14:17:23Z,42.805,6.029,13.2983,4.59991,2470.156,2021-2-01T16:18:26Z
2021-02-01T14:20:26Z,42.805,6.029,13.2985,4.59990,2470.18,2021-2-01T16:21:29Z
2021-02-01T14:23:29Z,42.805,6.029,13.2984,4.59991,2470.171,2021-2-01T16:24:32Z
2021-02-01T14:26:32Z,42.805,6.029,13.2987,4.59994,2470.194,2021-2-01T16:27:35Z
2021-02-01T14:29:36Z,42.805,6.029,13.2990,4.59995,2470.133,2021-2-01T16:30:38Z
2021-02-01T14:32:39Z,42.805,6.029,13.2986,4.59990,2470.18,2021-2-01T16:33:42Z
2021-02-01T14:35:42Z,42.805,6.029,13.2983,4.59991,2470.133,2021-2-01T16:36:45Z
2021-02-01T14:38:45Z,42.805,6.029,13.2984,4.59992,2470.171,2021-2-01T16:39:48Z
2021-02-01T14:41:48Z,42.805,6.029,13.2986,4.59991,2470.156,2021-2-01T16:42:51Z
2021-02-01T14:44:51Z,42.805,6.029,13.2986,4.59991,2470.171,2021-2-01T16:45:54Z
2021-02-01T14:47:54Z,42.805,6.029,13.2988,4.59993,2470.143,2021-2-01T16:48:57Z
2021-02-01T14:50:57Z,42.805,6.029,13.2982,4.59991,2470.171,2021-2-01T16:52:00Z
2021-02-01T14:54:01Z,42.805,6.029,13.2984,4.59990,2470.147,2021-2-01T16:55:03Z
2021-02-01T14:57:04Z,42.805,6.029,13.2983,4.59995,2470.171,2021-2-01T16:58:06Z
2021-02-01T15:00:07Z,42.805,6.029,13.2983,4.59993,2470.147,2021-2-01T17:01:10Z
2021-02-01T15:03:10Z,42.805,6.029,13.2983,4.59991,2470.156,2021-2-01T17:04:13Z
2021-02-01T15:06:13Z,42.805,6.029,13.2985,4.59989,2470.18,2021-2-01T17:07:16Z
2021-02-01T15:09:16Z,42.805,6.029,13.2982,4.59990,2470.18,2021-2-01T17:10:19Z
2021-02-01T15:12:19Z,42.805,6.029,13.2988,4.59991,2470.156,2021-2-01T17:13:22Z
2021-02-01T15:15:22Z,42.805,6.029,13.2986,4.59990,2470.18,2021-2-01T17:16:25Z